437  
ASUS43 KLOT 241203  
RWRIL  
 
ILLINOIS REGIONAL WEATHER ROUNDUP  
NATIONAL WEATHER SERVICE CHICAGO/ROMEOVILLE IL  
600 AM CST SAT FEB 24 2018  
 
NOTE: "FAIR" INDICATES FEW OR NO CLOUDS BELOW 12,000 FEET WITH NO  
SIGNIFICANT WEATHER AND/OR S TO VISIBILITY
.  
 
* THESE STATIONS ARE NOT UNDER NWS QUALITY CONTROL. THEY ALSO MAY NOT  
REPORT WEATHER SUCH AS PRECIPITATION OR FOG.
 
 
ILZ001-002-007-009-015-016-024-241300-  
NORTHWEST ILLINOIS  
 
CITY SKY/WX TMP DP RH WIND PRES REMARKS
 
MOLINE CLOUDY 32 27 81 NE9 30.14F WCI 24  
6HR MIN TEMP: 30; 6HR MAX TEMP: 32;  
 
STERLING* N/A 31 28 89 MISG N/A  
SAVANNA* CLOUDY 30 26 86 E10G20 30.17S WCI 21  

 
 
ILZ003-004-008-010-011-017-018-241300-  
NORTH CENTRAL ILLINOIS  
 
CITY SKY/WX TMP DP RH WIND PRES REMARKS
 
ROCKFORD CLOUDY 30 25 81 E9 30.19F WCI 22  
6HR MIN TEMP: 26; 6HR MAX TEMP: 30;  
 
FREEPORT* CLOUDY 28 26 90 E13 30.19S WCI 18  
ROCHELLE* CLOUDY 31 28 90 E12 30.17F WCI 22  
DE KALB* CLOUDY 31 29 93 NE14 30.17F WCI 21  
PERU* CLOUDY 32 29 88 E17 30.13F WCI 21  

 
 
ILZ005-006-012>014-019>023-241300-  
NORTHEAST ILLINOIS  
 
CITY SKY/WX TMP DP RH WIND PRES REMARKS
 
CHICAGO-OHARE CLOUDY 34 28 79 NE12 30.18F WCI 25  
6HR MIN TEMP: 33; 6HR MAX TEMP: 34;  
 
CHICAGO-MIDWAY CLOUDY 35 31 85 E17 30.19S WCI 25  
6HR MIN TEMP: 35; 6HR MAX TEMP: 36;  
 
AURORA CLOUDY 33 30 88 NE10 30.17F WCI 25  
6HR MIN TEMP: 31; 6HR MAX TEMP: 33;  
 
LANSING* CLOUDY 34 32 92 NE8G17 30.18F WCI 27  
JOLIET* CLOUDY 36 33 90 NE9 30.17S WCI 29  
WAUKEGAN CLOUDY 32 28 85 NE10 30.19F WCI 24  
6HR MIN TEMP: 30; 6HR MAX TEMP: 32;  
 
DUPAGE AIRPORT CLOUDY 33 30 88 NE10 30.16F WCI 25  
6HR MIN TEMP: 30; 6HR MAX TEMP: 33;  
 
KANKAKEE* CLOUDY 36 32 87 E9 30.16S WCI 29  
WHEELING CLOUDY 35 30 82 NE8 30.20F WCI 29  
6HR MIN TEMP: 32; 6HR MAX TEMP: 35;  
 
MORRIS* CLOUDY 33 31 91 NE3 30.16R  
ROMEOVILLE* CLOUDY 34 32 92 E13 30.16F WCI 25  
NORTHERLY ISL N/A 33 31 92 NE16 N/A WCI 23  

 
 
LMZ740>746-241300-  
SOUTHERN LAKE MICHIGAN  
 
STATION/POSITION SKY/WX TEMP WIND PRES VSBY WAVE
 
AIR SEA DIR/SP/G HT/PER  
(F) (DEG/KT/KT) (MB) (MI) (FT/S)  
HARRISON CRIB 35 70/ 17/ 18 N/A  
BURNHAM HARBOR 33 50/ 12/ 15 N/A  
CALUMET HARBOR 34 60/ 14/ 18 1022.0F  
BURNS HARBOR 34 60/ 11/ 13 1022.7F  
MICHIGAN CITY 33 40/ 11/ 12 N/A  

 
 
ILZ025>027-034>036-040-047-049-050-058-095>099-241300-  
WEST-CENTRAL ILLINOIS  
 
CITY SKY/WX TMP DP RH WIND PRES REMARKS
 
QUINCY LGT RAIN 33 32 96 NE10 30.06F FOG WCI 25  
GALESBURG* MIX PCPN 32 31 96 NE13 30.12F WCI 22  
MACOMB* LGT RAIN N/A N/A N/A E12 30.13S  
JACKSONVILLE* LGT RAIN 35 34 96 E14 30.06F WCI 26  
PITTSFIELD* DRIZZLE 36 35 99 NE9 30.07F WCI 29  

 
 
ILZ028>032-037-038-041>044-048-051>054-059>061-241300-  
CENTRAL ILLINOIS  
 
CITY SKY/WX TMP DP RH WIND PRES REMARKS
 
BLOOMINGTON LGT RAIN 34 33 96 E16 30.10F FOG WCI 24  
DECATUR MIX PCPN 37 37 100 E13 30.09F WCI 29  
PEORIA LGT RAIN 33 30 88 E9 30.12S FOG WCI 25  
6HR MIN TEMP: 33; 6HR MAX TEMP: 35;  
 
LACON* DRIZZLE 32 31 94 NE9 30.13S WCI 25  
LINCOLN* DRIZZLE 37 37 99 E9 30.11S WCI 30  
SPRINGFIELD LGT RAIN 38 36 92 E14 30.09F FOG WCI 30  
6HR MIN TEMP: 37; 6HR MAX TEMP: 38; 6HR PCP: 0.22;  
 
TAYLORVILLE RAIN 37 37 99 NE5 30.10R WCI 33  
6HR MIN TEMP: 36; 6HR MAX TEMP: 37; 6HR PCP: 0.26;  
 

 
 
ILZ033-039-045-046-055>057-062-063-241300-  
EAST-CENTRAL ILLINOIS  
 
CITY SKY/WX TMP DP RH WIND PRES REMARKS
 
CHAMPAIGN LGT RAIN 37 36 96 E14 30.09F FOG WCI 28  
DANVILLE* LGT RAIN 37 36 98 E8 30.10F WCI 30  
RANTOUL* CLOUDY 38 38 99 E12G17 30.11F FOG WCI 30  
MATTOON LGT RAIN 39 38 96 E6 30.09S WCI 35  
PARIS* LGT RAIN 38 38 100 E10 30.11F WCI 31  

 
 
ILZ079-100>102-241300-  
SOUTHWEST ILLINOIS  
 
CITY SKY/WX TMP DP RH WIND PRES REMARKS
 
ALTON LGT RAIN 39 39 100 E18G26 29.99F WCI 30  
BELLEVILLE LGT RAIN 42 40 94 E3 30.04F FOG  
CAHOKIA* HVY RAIN 42 40 92 E12 30.02F FOG  
SPARTA* RAIN 43 43 100 E8 30.04F  

 
 
ILZ064>066-069>071-074>076-080>082-084>086-088>090-092>094-241300-  
SOUTH-CENTRAL ILLINOIS  
 
CITY SKY/WX TMP DP RH WIND PRES REMARKS
 
CARBONDALE NOT AVBL  
CAIRO* RAIN 49 49 99 NE5 30.01S  
EFFINGHAM* HVY RAIN 41 41 100 NE3 30.11R  
MARION RAIN 46 46 99 NE9 30.04S  
MT. VERNON LGT RAIN 44 43 96 E9 30.05F FOG  
CENTRALIA* RAIN 44 44 99 NE8 30.04F  
SALEM* LGT RAIN 44 42 93 NE7 30.08R  
METROPOLIS* RAIN 49 49 97 E6 30.01F  

 
 
ILZ067-068-072-073-078-083-087-091-241300-  
SOUTHEAST ILLINOIS  
 
CITY SKY/WX TMP DP RH WIND PRES REMARKS
 
LAWRENCEVILLE RAIN 45 44 97 E12 30.11S FOG  
FLORA* RAIN 44 43 97 E8 30.07F  
FAIRFIELD* HVY RAIN 44 44 100 MISG 30.07F  
HARRISBURG* LGT RAIN 47 47 100 NE9G16 30.04F  
ROBINSON* RAIN 42 42 100 E8 30.11F  
CARMI* RAIN 46 46 100 NE9 30.06F  

 
 
ABBREVIATIONS USED IN REMARKS  
TC - TEMPERATURE IN CELSIUS  
WCI - WIND CHILL INDEX  
HX - HEAT INDEX  
VSB - VISIBILITY  

 
 
 
 
CLICK HERE TO GO TO PREVIOUS BULLETINS.

The Nexlab IL Page Main Text Page